Location: Zagreb
(45.8000°N, 16.0000°E)
Time: 18:32:22
(UTC+01:00)

N. Korean satellite - Pass Details

Date: 05 December 2021
Orbit: 447 x 491 km, 97.3° (Epoch: 23 January)

Event Time Altitude Azimuth Distance (km) Brightness Sun altitude
Rises 17:31:45 0° 215° (SW) 2,525 11.1 -13.4°
Maximum altitude 17:36:17 11° 270° (W) 1,569 10.3 -14.1°
Drops below altitude 10° 17:37:23 10° 288° (WNW) 1,637 10.1 -14.3°
Sets 17:40:49 0° 325° (NW) 2,507 10.4 -14.9°
